#timestamp,LO_Frequency,Hit 
1500224415.6,286047025.0,N
1500224435.4,286047036.3,N
1500224455.3,286047037.8,N
1500224475.1,286047029.1,N
1500224476.0,286047029.1,N
1500224495.8,286047024.2,N
1500224515.7,286047024.6,N
1500224535.5,286047028.1,N
1500224555.3,286047027.6,N
1500224575.2,286047038.0,N
1500224595.9,286047052.4,N
1500224615.7,286047052.0,N
1500224635.5,286047057.5,N
1500224655.4,286047054.7,N
1500224675.2,286047057.7,N
1500224695.0,286047060.0,N
1500224695.9,286047060.0,N
1500224715.8,286047048.5,N
1500224735.6,286047050.2,N
1500224755.4,286047044.9,N
1500224775.3,286047046.6,N
1500224795.1,286047044.0,N
1500224815.8,286047044.0,N
1500224835.7,286047042.8,N
1500224855.5,286047044.2,N
1500224875.3,286047058.3,N
1500224895.2,286047055.0,N
1500224915.9,286047054.2,N
1500224935.7,286047066.1,N
1500224955.6,286047067.1,N
1500224975.4,286047068.6,N
1500224995.2,286047072.7,N
1500225015.0,286047074.6,N
1500225016.0,286047074.6,N
1500225035.8,286047065.8,N
1500225055.6,286047060.3,N
1500225075.4,286047049.8,N
1500225095.3,286047053.7,N
1500225115.1,286047051.6,N
1500225135.8,286047060.5,N
1500225155.7,286047060.6,N
1500225175.5,286047062.7,N
1500225195.3,286047060.6,N
1500225215.2,286047065.2,N
1500225235.9,286047062.5,N
1500225255.7,286047066.6,N
1500225275.6,286047067.8,N
1500225295.4,286047068.9,N
1500225315.2,286047076.1,N
1500225335.1,286047069.6,N
1500225336.0,286047069.6,N
1500225355.8,286047067.4,N
1500225375.6,286047077.1,N
1500225395.5,286047074.9,N
1500225415.3,286047082.5,N
1500225435.1,286047078.5,N
1500225455.9,286047082.3,N
1500225475.7,286047081.6,N
1500225495.5,286047081.8,N
1500225515.3,286047084.4,N
1500225535.2,286047079.2,N
1500225555.0,286047089.9,N
1500225555.9,286047089.9,N
1500225575.7,286047098.4,N
1500225595.6,286047094.2,N
1500225615.4,286047092.0,N
1500225635.2,286047110.3,N
1500225655.1,286047113.9,N
1500225656.0,286047113.9,N
1500225675.8,286047111.5,N
1500225695.6,286047104.3,N
1500225715.5,286047098.8,N
1500225735.3,286047093.6,N
1500225755.1,286047084.9,N
1500225775.9,286047082.6,N
1500225795.7,286047078.0,N
1500225815.5,286047070.9,N
1500225835.4,286047069.2,N
1500225855.2,286047068.5,N
1500225875.0,286047071.1,N
1500225875.9,286047071.1,N
1500225895.3,286047070.2,N
1500225915.1,286047069.5,N
1500225935.9,286047075.1,N
1500225955.7,286047076.0,N
1500225975.5,286047073.9,N
1500225995.3,286047071.3,N
1500226015.2,286047073.3,N
1500226035.0,286047085.1,N
1500226035.9,286047085.1,N
1500226055.7,286047083.3,N
1500226075.6,286047092.1,N
1500226095.4,286047098.4,N
1500226115.2,286047101.5,N
1500226135.1,286047108.0,N
1500226136.0,286047108.0,N
1500226155.8,286047107.8,N
1500226175.6,286047114.1,N
1500226195.5,286047110.6,N
1500226215.3,286047104.3,N
1500226235.1,286047097.0,N
1500226255.9,286047092.4,N
1500226275.7,286047092.3,N
1500226295.5,286047089.7,N
1500226315.4,286047087.3,N
1500226335.2,286047087.9,N
1500226355.0,286047092.6,N
1500226355.9,286047092.6,N
1500226375.8,286047095.1,N
1500226395.6,286047089.8,N
1500226415.4,286047087.0,N
1500226435.2,286047076.5,N
1500226455.1,286047077.8,N
1500226456.0,286047077.8,N
1500226475.8,286047073.8,N
1500226495.6,286047072.0,N
1500226515.5,286047082.6,N
1500226535.3,286047087.2,N
1500226555.1,286047086.5,N
1500226575.9,286047085.3,N
1500226595.7,286047093.2,N
1500226615.5,286047092.5,N
1500226635.4,286047089.4,N
1500226655.2,286047090.3,N
1500226675.0,286047088.4,N
1500226675.9,286047088.4,N
1500226695.8,286047089.3,N
1500226715.6,286047086.5,N
1500226735.4,286047085.5,N
1500226755.3,286047084.3,N
1500226775.1,286047080.1,N
1500226776.0,286047080.1,N
1500226795.8,286047081.4,N
1500226815.6,286047082.2,N
1500226835.5,286047081.0,N
1500226855.3,286047077.2,N
1500226875.1,286047071.9,N
1500226895.9,286047067.3,N
1500226915.7,286047070.3,N
1500226935.5,286047072.1,N
1500226955.4,286047076.6,N
1500226975.2,286047078.0,N
1500226995.0,286047079.1,N
1500226995.9,286047079.1,N
1500227015.8,286047082.8,N
1500227035.6,286047082.5,N
1500227055.4,286047081.4,N
1500227075.3,286047082.8,N
1500227095.1,286047080.0,N
1500227096.0,286047080.0,N
1500227115.8,286047082.3,N
1500227135.7,286047081.6,N
1500227155.5,286047080.1,N
1500227175.3,286047076.0,N
1500227195.1,286047072.2,N
1500227215.9,286047073.6,N
1500227235.7,286047070.5,N
1500227255.5,286047070.0,N
1500227275.4,286047066.1,N
1500227295.2,286047067.6,N
1500227315.0,286047066.2,N
1500227315.9,286047066.2,N
1500227335.8,286047059.7,N
1500227355.6,286047054.3,N
1500227375.4,286047056.7,N
1500227395.3,286047054.5,N
1500227415.1,286047056.0,N
1500227435.8,286047056.8,N
1500227455.7,286047052.1,N
1500227475.5,286047048.4,N
1500227495.3,286047047.4,N
1500227515.2,286047048.3,N
1500227535.9,286047048.6,N
1500227555.7,286047051.1,N
1500227575.6,286047059.2,N
1500227595.4,286047061.5,N
1500227615.2,286047056.9,N
1500227635.0,286047055.8,N
1500227636.0,286047055.8,N
1500227655.8,286047059.5,N
1500227675.6,286047066.8,N
1500227695.4,286047067.1,N
1500227715.3,286047069.1,N
1500227735.1,286047071.2,N
1500227755.8,286047069.9,N
1500227775.7,286047069.9,N
1500227795.5,286047077.7,N
1500227815.3,286047086.4,N
1500227835.2,286047091.1,N
1500227855.9,286047088.0,N
1500227875.7,286047085.3,N
1500227895.6,286047079.3,N
1500227915.4,286047076.5,N
1500227935.2,286047078.6,N
1500227955.1,286047078.9,N
1500227956.0,286047078.9,N
1500227975.8,286047077.8,N
1500227995.6,286047080.2,N
